DW7126 Weather Reports


time (UTC)temp
C
wind
direction
speed
KPH
gust
KPH
rain 1hr
cm
rain 24hr
cm
rain mn
cm
humidity
%
barometer
mb
20181215014651 12 200 9.7 12.9 0.00 0.00 0.00 90 1026.2
20181215014532 12 213 9.7 12.9 0.00 0.00 0.00 90 1026.2
20181215014046 12 198 11.3 16.1 0.00 0.00 0.00 90 1026.2
20181215013539 12 225 9.7 14.5 0.00 0.00 0.00 89 1026.2
20181215013111 12 181 9.7 14.5 0.00 0.00 0.00 89 1026.1
20181215013058 13 194 11.3 14.5 0.00 0.00 0.00 89 1026.1
20181215012541 13 205 11.3 17.7 0.00 0.00 0.00 89 1026.2
20181215012023 13 224 12.9 17.7 0.00 0.00 0.00 89 1026.2
20181215011540 13 204 9.7 16.1 0.00 0.00 0.00 89 1026.2
20181215011037 13 212 11.3 19.3 0.00 0.00 0.00 89 1026.3
20181215010525 13 200 12.9 19.3 0.00 0.00 0.00 89 1026.4
20181215010048 13 223 11.3 20.9 0.00 0.00 0.00 89 1026.5
20181215010033 12 216 11.3 20.9 0.00 0.00 0.00 89 1026.5
20181215005535 13 195 12.9 20.9 0.00 0.00 0.00 89 1026.6
20181215005041 12 196 11.3 14.5 0.00 0.00 0.00 90 1026.6
20181215004611 12 226 8.0 14.5 0.00 0.00 0.00 90 1026.7
20181215004528 12 222 9.7 14.5 0.00 0.00 0.00 90 1026.7
20181215004050 12 219 8.0 12.9 0.00 0.00 0.00 90 1026.8
20181215003533 12 200 9.7 12.9 0.00 0.00 0.00 90 1026.9
20181215003036 12 209 11.3 12.9 0.00 0.00 0.00 90 1027.0
20181215002526 12 204 8.0 12.9 0.00 0.00 0.00 90 1027.0
20181215002044 12 227 8.0 12.9 0.00 0.00 0.00 90 1027.1
20181215001532 12 234 9.7 14.5 0.00 0.00 0.00 90 1027.1
20181215001049 12 191 8.0 12.9 0.00 0.00 0.00 90 1027.1
20181215000533 12 191 8.0 12.9 0.00 0.00 0.00 90 1027.1
20181215000137 11 210 6.4 11.3 0.00 0.00 0.00 90 1027.2
20181215000048 12 221 6.4 11.3 0.00 0.00 0.00 90 1027.2
20181214235528 12 213 8.0 11.3 0.00 0.00 0.00 90 1027.2
20181214235046 12 229 8.0 11.3 0.00 0.00 0.00 90 1027.2
20181214234543 12 220 8.0 11.3 0.00 0.00 0.00 90 1027.2
20181214234043 12 215 8.0 11.3 0.00 0.00 0.00 90 1027.1
20181214233529 12 214 8.0 14.5 0.00 0.00 0.00 89 1027.2
20181214233234 12 215 9.7 17.7 0.00 0.00 0.00 89 1027.2
20181214233037 12 219 11.3 17.7 0.00 0.00 0.00 89 1027.2
20181214232528 12 202 11.3 17.7 0.00 0.00 0.00 88 1027.2
20181214232039 12 207 12.9 17.7 0.00 0.00 0.00 89 1027.1
20181214231530 12 186 11.3 14.5 0.00 0.00 0.00 88 1027.2
20181214231029 12 195 9.7 14.5 0.00 0.00 0.00 89 1027.3
20181214230539 12 200 9.7 12.9 0.00 0.00 0.00 89 1027.3
20181214230029 12 211 8.0 17.7 0.00 0.00 0.00 89 1027.2
20181214225540 12 197 11.3 17.7 0.00 0.10 0.00 89 1027.3
20181214225042 12 189 11.3 16.1 0.00 0.10 0.00 89 1027.2
20181214224531 12 183 8.0 11.3 0.00 0.10 0.00 89 1027.2
20181214224050 12 210 6.4 11.3 0.00 0.10 0.00 89 1027.3
20181214223533 12 210 8.0 12.9 0.00 0.10 0.00 89 1027.2
20181214223055 12 214 9.7 12.9 0.00 0.10 0.00 89 1027.2
20181214223039 12 200 9.7 12.9 0.00 0.03 0.00 89 1027.2
20181214222535 12 209 9.7 12.9 0.00 0.10 0.00 89 1027.2
20181214222035 12 208 9.7 14.5 0.00 0.10 0.00 89 1027.3
20181214221651 12 219 9.7 12.9 0.00 0.03 0.00 89 1027.4
20181214221531 12 214 9.7 12.9 0.00 0.10 0.00 89 1027.4
20181214221049 12 217 11.3 16.1 0.00 0.10 0.00 89 1027.4
20181214220538 12 210 11.3 16.1 0.00 0.10 0.00 89 1027.5
20181214220046 12 214 12.9 19.3 0.00 0.10 0.00 89 1027.4
20181214215529 12 211 14.5 22.5 0.00 0.10 0.00 89 1027.3
20181214215025 12 213 17.7 22.5 0.00 0.10 0.00 89 1027.2
20181214214544 12 211 16.1 19.3 0.00 0.10 0.00 90 1027.2
20181214214053 12 223 14.5 19.3 0.00 0.10 0.00 90 1027.2
20181214213545 12 217 11.3 16.1 0.00 0.10 0.00 91 1027.2
20181214213054 11 207 11.3 16.1 0.00 0.10 0.00 91 1027.3
20181214212537 11 226 9.7 11.3 0.00 0.10 0.00 91 1027.3
20181214212052 11 217 6.4 9.7 0.00 0.10 0.00 91 1027.3
20181214211541 11 215 8.0 9.7 0.00 0.10 0.00 91 1027.2
20181214211516 11 212 6.4 11.3 0.00 0.03 0.00 91 1027.2
20181214211049 11 208 8.0 12.9 0.00 0.10 0.00 91 1027.2
20181214210538 12 200 9.7 12.9 0.00 0.10 0.00 91 1027.1
20181214210042 11 210 6.4 11.3 0.00 0.10 0.00 91 1027.1
20181214205527 11 225 9.7 11.3 0.00 0.10 0.00 91 1027.1
20181214205051 11 215 8.0 9.7 0.00 0.10 0.00 91 1027.1
20181214204546 11 199 6.4 9.7 0.00 0.10 0.00 91 1027.1
20181214204044 11 213 6.4 11.3 0.00 0.10 0.00 91 1027.1
20181214203532 11 227 8.0 11.3 0.00 0.10 0.00 92 1027.1
20181214203043 11 220 8.0 11.3 0.00 0.10 0.00 92 1027.1
20181214202528 11 217 8.0 11.3 0.00 0.10 0.00 92 1027.1
20181214202053 11 215 8.0 12.9 0.00 0.10 0.00 92 1027.2
20181214201540 11 207 9.7 12.9 0.00 0.10 0.00 92 1027.1
20181214201039 11 226 8.0 9.7 0.00 0.10 0.00 92 1027.2
20181214200526 11 215 8.0 9.7 0.00 0.10 0.00 92 1027.2
20181214200051 11 206 8.0 11.3 0.00 0.10 0.00 92 1027.2
20181214200034 11 214 6.4 11.3 0.00 0.03 0.00 92 1027.2
20181214195540 11 203 8.0 11.3 0.00 0.10 0.00 92 1027.1
20181214195049 11 209 8.0 9.7 0.00 0.10 0.00 92 1027.2
20181214194542 11 211 6.4 8.0 0.00 0.10 0.00 92 1027.1
20181214194040 11 207 6.4 8.0 0.00 0.10 0.00 92 1027.1
20181214193527 11 207 6.4 8.0 0.00 0.10 0.00 92 1027.0
20181214193100 11 209 6.4 8.0 0.00 0.03 0.00 92 1027.0
20181214193031 11 209 6.4 8.0 0.00 0.10 0.00 92 1027.0
20181214192545 11 209 6.4 8.0 0.00 0.10 0.00 92 1027.1
20181214192045 11 208 6.4 8.0 0.00 0.10 0.00 92 1027.1
20181214191711 11 208 4.8 6.4 0.00 0.03 0.00 92 1027.1
20181214191532 11 208 6.4 6.4 0.00 0.10 0.00 92 1027.1
20181214191050 11 208 4.8 6.4 0.00 0.10 0.00 92 1027.2
20181214190536 11 208 4.8 8.0 0.00 0.10 0.00 92 1027.1
20181214190055 11 208 6.4 8.0 0.00 0.10 0.00 92 1027.1
20181214185538 11 208 6.4 8.0 0.00 0.20 0.00 92 1027.1
20181214185052 11 209 6.4 8.0 0.00 0.20 0.00 92 1027.1
20181214184544 11 209 6.4 8.0 0.00 0.20 0.00 92 1027.2
20181214184046 11 208 6.4 8.0 0.00 0.20 0.00 92 1027.1
20181214183533 11 209 6.4 8.0 0.00 0.20 0.00 92 1027.1
20181214183035 11 209 6.4 8.0 0.00 0.20 0.00 91 1027.0
20181214182527 11 209 6.4 9.7 0.00 0.20 0.00 91 1027.0
20181214182037 11 209 6.4 9.7 0.00 0.20 0.00 91 1027.0
20181214181529 11 209 8.0 9.7 0.00 0.20 0.00 91 1026.9
20181214181044 11 204 8.0 9.7 0.00 0.20 0.00 91 1026.8
20181214180535 11 206 8.0 11.3 0.00 0.20 0.00 91 1026.8
20181214180043 11 209 8.0 11.3 0.00 0.20 0.00 91 1026.8
20181214175537 11 203 9.7 11.3 0.00 0.30 0.00 90 1026.8
20181214175038 11 203 9.7 11.3 0.00 0.30 0.00 90 1026.8
20181214174531 11 207 8.0 9.7 0.00 0.30 0.00 89 1026.9
20181214174029 12 210 8.0 9.7 0.00 0.30 0.00 89 1026.9
20181214173522 12 210 8.0 9.7 0.00 0.30 0.00 89 1026.9
20181214173046 12 211 8.0 9.7 0.00 0.30 0.00 88 1026.9
20181214172532 12 210 8.0 9.7 0.00 0.30 0.00 88 1026.8
20181214172032 12 211 8.0 9.7 0.00 0.30 0.00 87 1026.8
20181214171527 12 211 8.0 9.7 0.00 0.30 0.00 86 1026.8
20181214171042 13 214 8.0 11.3 0.00 0.30 0.00 86 1026.8
20181214170532 13 231 8.0 11.3 0.00 0.30 0.00 85 1026.7
20181214170032 13 227 8.0 11.3 0.00 0.30 0.00 84 1026.7
20181214165530 13 237 8.0 12.9 0.00 0.30 0.00 83 1026.7
20181214165034 13 233 9.7 11.3 0.00 0.30 0.00 82 1026.7
20181214164621 13 236 6.4 11.3 0.00 0.05 0.00 82 1026.5
20181214164528 13 238 8.0 11.3 0.00 0.30 0.00 82 1026.5
20181214164050 14 241 6.4 11.3 0.00 0.30 0.00 82 1026.5
20181214163536 14 225 8.0 11.3 0.00 0.30 0.00 82 1026.5
20181214163102 13 243 8.0 11.3 0.00 0.05 0.00 81 1026.4
20181214163039 14 234 8.0 11.3 0.00 0.30 0.00 81 1026.5
20181214162528 14 227 9.7 12.9 0.00 0.30 0.00 80 1026.5
20181214162034 14 230 9.7 12.9 0.00 0.30 0.00 80 1026.5
20181214161611 14 244 6.4 12.9 0.00 0.05 0.00 79 1026.5
20181214161526 14 240 8.0 12.9 0.00 0.30 0.00 79 1026.5
20181214161038 14 246 9.7 14.5 0.00 0.30 0.00 79 1026.6
20181214160530 15 240 11.3 14.5 0.00 0.30 0.00 79 1026.6
20181214160048 15 243 11.3 14.5 0.00 0.30 0.00 78 1026.7
20181214155540 15 250 11.3 14.5 0.00 0.30 0.00 79 1026.6
20181214155047 15 252 11.3 14.5 0.00 0.30 0.00 80 1026.6
20181214154543 15 261 8.0 12.9 0.00 0.30 0.00 79 1026.6
20181214154505 15 261 8.0 12.9 0.00 0.05 0.00 79 1026.6
20181214154051 15 265 9.7 12.9 0.00 0.30 0.00 79 1026.6
20181214153540 15 238 8.0 12.9 0.00 0.30 0.00 77 1026.6
20181214153045 15 237 8.0 14.5 0.00 0.30 0.00 77 1026.5
20181214152531 15 252 9.7 14.5 0.00 0.30 0.00 77 1026.5
20181214152031 15 277 8.0 12.9 0.00 0.30 0.00 77 1026.6
20181214151708 15 256 8.0 14.5 0.00 0.05 0.00 77 1026.4
20181214151526 15 252 8.0 14.5 0.00 0.30 0.00 76 1026.5
20181214151051 15 246 11.3 14.5 0.00 0.30 0.00 77 1026.4
20181214150542 15 231 9.7 14.5 0.00 0.30 0.00 76 1026.4
20181214150048 15 231 9.7 14.5 0.00 0.30 0.00 77 1026.4
20181214145539 15 233 8.0 12.9 0.00 0.30 0.00 78 1026.3
20181214145045 15 246 8.0 12.9 0.00 0.30 0.00 76 1026.5
20181214144539 15 273 8.0 12.9 0.00 0.30 0.00 76 1026.5
20181214144506 15 275 6.4 14.5 0.00 0.05 0.00 77 1026.4
20181214144053 15 273 6.4 16.1 0.00 0.30 0.00 76 1026.4
20181214143541 15 261 12.9 16.1 0.00 0.30 0.00 77 1026.5
20181214143048 15 263 8.0 16.1 0.00 0.30 0.00 77 1026.5
20181214142536 15 262 11.3 16.1 0.00 0.30 0.00 76 1026.5
20181214142046 15 261 9.7 14.5 0.00 0.30 0.00 76 1026.5
20181214141541 15 321 6.4 14.5 0.00 0.30 0.00 77 1026.5
20181214141534 15 321 6.4 14.5 0.00 0.05 0.00 76 1026.4
20181214141037 15 262 8.0 16.1 0.00 0.30 0.00 78 1026.5
20181214140531 15 290 9.7 16.1 0.00 0.30 0.00 78 1026.5
20181214140055 15 302 9.7 16.1 0.00 0.30 0.00 77 1026.5
20181214135539 15 265 8.0 14.5 0.00 0.30 0.00 77 1026.5
20181214135040 15 261 8.0 16.1 0.00 0.30 0.00 77 1026.5
20181214134533 15 289 8.0 16.1 0.00 0.30 0.00 77 1026.5
20181214134049 15 310 9.7 16.1 0.00 0.30 0.00 77 1026.6
20181214133540 15 286 6.4 16.1 0.00 0.30 0.00 77 1026.7
20181214133053 15 285 12.9 16.1 0.00 0.30 0.00 76 1026.7
20181214132536 15 286 9.7 16.1 0.00 0.30 0.00 76 1026.7
20181214132042 15 305 9.7 16.1 0.00 0.30 0.00 75 1026.8
20181214131542 15 306 9.7 14.5 0.00 0.30 0.00 77 1026.8
20181214131517 15 302 8.0 14.5 0.00 0.05 0.00 77 1026.8
20181214131039 15 321 4.8 14.5 0.00 0.30 0.00 76 1026.8
20181214130533 15 299 6.4 16.1 0.00 0.30 0.00 78 1027.0
20181214130042 15 254 9.7 16.1 0.00 0.30 0.00 79 1027.0
20181214125526 14 258 8.0 17.7 0.00 0.30 0.00 78 1027.1
20181214125047 14 298 9.7 17.7 0.00 0.30 0.00 77 1027.2
20181214124544 15 273 11.3 20.9 0.00 0.30 0.00 78 1027.2
20181214124047 15 258 11.3 20.9 0.00 0.30 0.00 78 1027.2
20181214123533 15 260 11.3 16.1 0.00 0.30 0.00 76 1027.2
20181214123044 15 292 8.0 17.7 0.00 0.30 0.00 77 1027.2
20181214122529 15 285 9.7 17.7 0.00 0.30 0.00 78 1027.2
20181214122036 14 274 12.9 16.1 0.00 0.30 0.00 76 1027.4
20181214121657 14 283 12.9 20.9 0.00 0.05 0.00 78 1027.6
20181214121520 14 292 12.9 20.9 0.00 0.30 0.00 78 1027.6
20181214121036 14 294 14.5 20.9 0.00 0.30 0.00 78 1027.6
20181214120526 14 254 9.7 16.1 0.00 0.30 0.00 78 1027.7
20181214120030 14 281 8.0 16.1 0.00 0.30 0.00 78 1027.8
20181214115534 14 295 9.7 17.7 0.00 0.30 0.00 78 1027.8
20181214115025 14 281 9.7 17.7 0.00 0.30 0.00 78 1027.8
20181214114548 14 262 9.7 16.1 0.00 0.30 0.00 78 1027.8
20181214114531 14 263 11.3 16.1 0.00 0.05 0.00 78 1027.8
20181214114033 14 263 6.4 16.1 0.00 0.30 0.00 77 1027.9
20181214113552 15 279 6.4 19.3 0.00 0.30 0.00 79 1027.8
20181214113205 14 267 11.3 19.3 0.00 0.05 0.00 79 1027.8
20181214113039 14 254 11.3 19.3 0.00 0.30 0.00 78 1027.8
20181214112530 14 320 9.7 19.3 0.00 0.30 0.00 78 1027.7
20181214112021 14 271 12.9 19.3 0.00 0.30 0.00 77 1027.7
20181214111536 15 259 11.3 19.3 0.00 0.30 0.00 76 1027.6
20181214111032 15 279 12.9 19.3 0.00 0.30 0.00 76 1027.6
20181214110530 15 263 12.9 16.1 0.00 0.30 0.00 79 1027.7
20181214110038 15 286 9.7 14.5 0.00 0.30 0.00 80 1027.8
20181214105520 15 295 8.0 16.1 0.00 0.30 0.00 78 1028.0
20181214105033 14 257 11.3 16.1 0.00 0.30 0.00 78 1028.0
20181214104541 14 296 8.0 12.9 0.00 0.30 0.00 79 1028.0
20181214104518 14 302 6.4 12.9 0.00 0.05 0.00 79 1028.0
20181214104023 13 303 8.0 16.1 0.00 0.30 0.00 80 1028.0
20181214103537 13 266 12.9 16.1 0.00 0.30 0.00 80 1028.0
20181214103033 14 258 6.4 12.9 0.00 0.30 0.00 81 1028.0
20181214102540 13 290 4.8 8.0 0.00 0.30 0.00 80 1027.9
20181214102052 13 313 1.6 4.8 0.00 0.30 0.00 81 1027.9
20181214101621 13 312 1.6 4.8 0.00 0.05 0.00 81 1028.0
20181214101527 13 312 1.6 4.8 0.00 0.30 0.00 81 1027.9
20181214101042 13 312 3.2 4.8 0.00 0.30 0.00 81 1027.9
20181214100534 13 312 3.2 4.8 0.00 0.30 0.00 82 1027.8
20181214100037 13 320 0.0 6.4 0.00 0.30 0.00 83 1027.8
20181214095526 13 327 3.2 6.4 0.00 0.30 0.00 82 1027.8
20181214095038 13 300 3.2 4.8 0.00 0.30 0.00 82 1027.7
20181214094545 13 300 1.6 4.8 0.00 0.30 0.00 82 1027.6
20181214094508 13 300 1.6 4.8 0.00 0.05 0.00 83 1027.6
20181214094029 13 300 0.0 4.8 0.00 0.30 0.00 83 1027.4
20181214093548 13 300 0.0 4.8 0.00 0.30 0.00 82 1027.3
20181214093119 13 300 1.6 6.4 0.00 0.05 0.00 81 1027.2
20181214093032 13 300 1.6 6.4 0.00 0.30 0.00 81 1027.1
20181214092554 13 299 1.6 6.4 0.00 0.30 0.00 81 1027.1
20181214092032 13 305 1.6 6.4 0.00 0.30 0.00 81 1027.2
20181214091646 12 306 3.2 6.4 0.00 0.05 0.00 81 1027.3
20181214091525 12 306 3.2 6.4 0.00 0.30 0.00 82 1027.2
20181214091042 12 305 3.2 6.4 0.00 0.30 0.00 81 1027.3
20181214090533 12 331 3.2 6.4 0.00 0.30 0.00 81 1027.2
20181214090224 12 336 1.6 6.4 0.00 0.05 0.00 81 1027.2
20181214090022 12 336 3.2 6.4 0.00 0.30 0.00 81 1027.2
20181214085534 12 339 3.2 6.4 0.00 0.30 0.00 81 1027.2
20181214085030 12 341 3.2 6.4 0.00 0.30 0.00 81 1027.0
20181214084528 12 329 4.8 6.4 0.00 0.30 0.00 80 1027.0
20181214084041 12 310 3.2 6.4 0.00 0.30 0.00 81 1026.9
20181214083531 12 309 3.2 8.0 0.00 0.30 0.00 80 1026.8
20181214083033 12 326 4.8 8.0 0.00 0.30 0.00 81 1026.8
20181214083012 12 313 3.2 8.0 0.00 0.05 0.00 81 1026.8
20181214082554 12 315 1.6 4.8 0.00 0.30 0.00 81 1026.7
20181214082029 12 326 1.6 4.8 0.00 0.30 0.00 81 1026.6
20181214081538 12 5 1.6 4.8 0.00 0.30 0.00 81 1026.6
20181214081052 12 5 3.2 4.8 0.00 0.30 0.00 81 1026.5
20181214080524 12 11 1.6 4.8 0.00 0.30 0.00 81 1026.4
20181214080042 12 333 3.2 4.8 0.00 0.30 0.00 81 1026.5
20181214075534 12 341 3.2 6.4 0.00 0.30 0.00 81 1026.5
20181214075029 12 338 3.2 6.4 0.00 0.30 0.00 81 1026.3
20181214074536 12 336 3.2 9.7 0.00 0.30 0.00 80 1026.4
20181214074028 12 344 4.8 9.7 0.00 0.30 0.00 80 1026.3
20181214073533 12 344 4.8 6.4 0.00 0.30 0.00 80 1026.1
20181214073031 12 342 1.6 8.0 0.00 0.30 0.00 80 1025.9
20181214073008 11 342 1.6 8.0 0.00 0.05 0.00 80 1026.0
20181214072542 12 341 4.8 8.0 0.00 0.30 0.00 80 1026.2
20181214072053 12 350 4.8 8.0 0.00 0.30 0.00 80 1026.1
20181214071606 11 336 3.2 8.0 0.00 0.05 0.00 80 1026.0
20181214071546 12 340 4.8 8.0 0.00 0.30 0.00 80 1026.0
20181214071026 12 13 4.8 8.0 0.00 0.30 0.00 80 1025.8
20181214070532 12 360 3.2 6.4 0.00 0.30 0.00 80 1025.9
20181214070041 12 330 4.8 6.4 0.00 0.30 0.00 80 1025.9
20181214065533 12 333 4.8 11.3 0.00 0.41 0.00 80 1025.9
20181214065047 12 319 6.4 11.3 0.00 0.41 0.00 80 1025.8
20181214064553 11 347 3.2 8.0 0.00 0.08 0.00 81 1025.8
20181214064550 12 12 4.8 8.0 0.00 0.41 0.00 81 1025.7
20181214064055 12 10 3.2 6.4 0.00 0.41 0.00 81 1025.6
20181214063526 12 360 3.2 9.7 0.00 0.41 0.00 81 1025.6
20181214063052 12 342 4.8 9.7 0.00 0.41 0.00 81 1025.5
20181214063031 11 9 3.2 8.0 0.00 0.08 0.00 81 1025.5
20181214062533 12 22 4.8 9.7 0.00 0.41 0.00 80 1025.5
20181214062057 12 24 3.2 9.7 0.00 0.41 0.00 79 1025.4
20181214061624 12 306 4.8 11.3 0.00 0.08 0.00 79 1025.3
20181214061531 12 346 4.8 11.3 0.00 0.41 0.00 79 1025.3
20181214061025 12 360 6.4 12.9 0.00 0.41 0.00 79 1025.2
20181214060550 12 344 6.4 12.9 0.00 0.41 0.00 78 1024.9
20181214060120 12 313 4.8 11.3 0.00 0.08 0.00 79 1024.9
20181214060036 12 315 6.4 11.3 0.00 0.41 0.00 79 1024.9
20181214055537 12 313 6.4 11.3 0.00 0.41 0.00 80 1025.0
20181214055051 12 5 4.8 8.0 0.00 0.41 0.00 80 1024.8
20181214054654 12 340 3.2 11.3 0.00 0.08 0.00 80 1024.9
20181214054528 12 325 4.8 14.5 0.00 0.41 0.00 80 1024.9
20181214054051 12 317 6.4 16.1 0.00 0.41 0.00 79 1024.5
20181214053552 12 307 6.4 12.9 0.00 0.41 0.00 79 1024.8
20181214053100 12 324 6.4 16.1 0.00 0.08 0.00 79 1024.8
20181214053030 12 323 8.0 16.1 0.00 0.41 0.00 79 1024.8
20181214052521 12 328 8.0 16.1 0.00 0.41 0.00 78 1024.7
20181214052025 12 332 9.7 14.5 0.00 0.41 0.00 78 1024.6
20181214051529 12 360 8.0 16.1 0.00 0.41 0.00 79 1024.6
20181214051028 12 307 9.7 16.1 0.00 0.41 0.00 78 1024.4
20181214050524 12 315 8.0 17.7 0.00 0.41 0.00 78 1024.5
20181214050148 12 347 8.0 16.1 0.00 0.08 0.00 78 1024.5
20181214050041 12 333 9.7 16.1 0.00 0.41 0.00 78 1024.5
20181214045522 12 328 8.0 16.1 0.00 0.41 0.00 78 1024.5
20181214045023 12 327 8.0 16.1 0.00 0.41 0.00 78 1024.5
20181214044538 12 335 11.3 16.1 0.00 0.41 0.00 79 1024.6
20181214044041 12 329 9.7 16.1 0.00 0.41 0.00 79 1024.5
20181214043532 12 327 9.7 14.5 0.00 0.41 0.00 79 1024.5
20181214043039 12 325 9.7 14.5 0.00 0.41 0.00 79 1024.4
20181214042524 12 309 11.3 19.3 0.00 0.41 0.00 79 1024.4
20181214042037 12 309 11.3 19.3 0.00 0.41 0.00 79 1024.2
20181214041521 12 317 9.7 17.7 0.00 0.41 0.00 78 1024.1
20181214041514 12 360 9.7 17.7 0.00 0.08 0.00 78 1024.1
20181214041038 12 355 9.7 17.7 0.00 0.41 0.00 78 1024.4
20181214040531 12 305 9.7 17.7 0.00 0.41 0.00 78 1024.3
20181214040041 12 311 9.7 17.7 0.00 0.41 0.00 79 1024.4
20181214040015 12 323 9.7 17.7 0.00 0.08 0.00 79 1024.3
20181214035525 12 318 11.3 20.9 0.00 0.89 0.00 80 1024.4
20181214035038 12 331 9.7 20.9 0.00 0.89 0.00 79 1024.4
20181214034549 12 340 12.9 19.3 0.00 0.89 0.00 78 1024.5
20181214034512 12 355 12.9 19.3 0.00 0.18 0.00 78 1024.5
20181214034039 12 297 9.7 16.1 0.00 0.89 0.00 79 1024.6
20181214033550 12 273 8.0 16.1 0.00 0.89 0.00 78 1024.5
20181214033035 12 310 11.3 17.7 0.00 0.89 0.00 79 1024.6
20181214033009 12 300 9.7 17.7 0.00 0.18 0.00 79 1024.6
20181214032547 12 312 12.9 17.7 0.00 0.89 0.00 80 1024.7
20181214032027 11 316 6.4 12.9 0.00 0.89 0.00 81 1024.7
20181214031542 11 321 4.8 14.5 0.00 0.89 0.00 80 1024.7
20181214031036 11 308 9.7 14.5 0.00 0.89 0.00 80 1024.6
20181214030535 11 360 8.0 12.9 0.00 0.89 0.00 80 1024.6
20181214030032 11 346 4.8 8.0 0.00 0.89 0.00 80 1024.6
20181214025527 11 347 4.8 8.0 0.00 0.99 0.00 80 1024.5
20181214025047 11 355 4.8 6.4 0.00 0.99 0.00 80 1024.5
20181214024613 11 42 3.2 6.4 0.00 0.20 0.00 81 1024.5
20181214024545 11 11 4.8 6.4 0.00 0.99 0.00 81 1024.5
20181214024024 11 15 3.2 9.7 0.00 0.99 0.00 80 1024.6
20181214023531 11 22 3.2 12.9 0.00 0.99 0.00 80 1024.6
20181214023044 11 327 9.7 12.9 0.00 0.99 0.00 80 1024.5
20181214022532 11 315 8.0 12.9 0.00 0.99 0.00 80 1024.5
20181214022034 11 355 6.4 12.9 0.00 0.99 0.00 80 1024.4
20181214021541 11 33 6.4 12.9 0.00 0.99 0.00 80 1024.4
20181214021019 11 336 6.4 12.9 0.00 0.99 0.00 80 1024.5
20181214020532 11 301 8.0 12.9 0.00 0.99 0.00 80 1024.5
20181214020230 11 333 6.4 17.7 0.00 0.20 0.00 81 1024.4
20181214020032 11 325 8.0 17.7 0.00 0.99 0.00 81 1024.4
20181214015538 11 319 9.7 17.7 0.00 0.99 0.00 82 1024.6
20181214015024 11 355 4.8 9.7 0.00 0.99 0.00 84 1024.6